Simultaneous Nadir Overpasses (SNOs) Predictions

Prediction of SNOs between AQUA and METOP-A Satellite Orbit:

Table of predicted SNOs for the next 14.0 days since TLE Epoch: 1/31/2014
Index Date (AQUA) Time (AQUA) Lat,Lon (AQUA) SZA (AQUA ) Date (METOP-A) Time (METOP-A) Lat,Lon (METOP-A) SZA (METOP-A ) Distance(km) Time Diff (sec)
1 02/01/2014 19:44:45 -73.85, 58.02 89.10 02/01/2014 19:44:02 -73.86, 57.92 89.08 3.27 43
2 02/01/2014 20:34:14 73.92,-134.51 90.97 02/01/2014 20:34:41 73.92,-134.60 90.97 3.10 27
3 02/04/2014 15:19:00 -73.89, 124.39 89.89 02/04/2014 15:18:21 -73.91, 124.45 89.86 3.26 39
4 02/04/2014 16:08:29 73.96, -68.15 90.19 02/04/2014 16:09:00 73.96, -68.09 90.19 1.79 31
5 02/07/2014 10:53:13 -73.91,-169.22 90.72 02/07/2014 10:52:40 -73.90,-169.16 90.72 2.30 33
6 02/07/2014 11:42:41 73.94, -1.65 89.31 02/07/2014 11:43:19 73.95, -1.71 89.31 2.04 38
7 02/10/2014 06:27:25 -73.88,-102.69 91.65 02/10/2014 06:27:00 -73.89,-102.78 91.63 2.80 25
8 02/10/2014 07:16:54 73.96, 64.75 88.44 02/10/2014 07:17:38 73.98, 64.78 88.44 1.70 44
9 02/13/2014 01:11:58 73.20, 157.58 86.70 02/13/2014 01:10:53 73.12, 154.57 86.78 97.36 65
10 02/13/2014 02:01:37 -73.89, -36.26 92.57 02/13/2014 02:01:19 -73.91, -36.30 92.54 2.73 18
11 02/13/2014 02:51:06 73.98, 131.18 87.52 02/13/2014 02:51:57 74.00, 131.24 87.53 3.04 51




NCC Satellite Simultaneous Nadir Overpasses (SNOs) Prediction Service
